Theta_e
337 337 336 337 338 338 339 339 339 340 340 341 340 341 342 340 341 339 340 341 340 338 338 338 337 337 339 339 338 340 339 341 340 341 341 341 341 342 342 342 342 342 342 341 338 336 337 336 335 332 332 332 333 333 333 333 333 332 331 331 329 330 328 332 332 331 327 323 324 323 321 320 318 317 315 313 312 313 312 312 313 314 313 313 313
335 333 335 336 336 337 337 337 337 336 337 339 339 341 341 341 341 340 340 340 339 339 338 339 339 339 339 339 338 337 337 338 337 338 339 339 340 340 340 341 340 338 337 335 335 335 334 332 333 332 333 333 332 331 331 330 331 331 331 327 328 326 326 330 331 330 323 322 319 320 319 319 317 314 313 312 312 312 312 313 313 313 312 313 313
331 331 334 334 335 336 336 337 336 337 338 338 340 339 339 340 341 341 339 339 340 340 339 339 340 342 342 339 338 337 338 337 336 333 333 333 334 335 336 334 333 332 332 332 333 333 332 331 332 333 332 331 331 331 330 329 329 329 330 327 323 324 323 326 327 330 324 325 326 321 317 317 316 311 311 310 311 311 311 311 311 310 309 310 311
329 330 331 333 333 334 335 335 336 337 337 337 336 335 337 339 339 339 338 338 339 340 340 342 342 343 342 340 339 338 335 333 333 334 331 329 329 331 332 331 331 330 330 330 330 331 331 331 332 331 330 330 328 328 327 326 328 328 328 326 325 320 320 319 326 327 326 324 321 320 322 320 316 315 310 309 309 310 310 311 311 310 310 309 310
329 331 332 332 332 332 334 335 336 336 334 333 334 335 337 339 340 338 338 338 339 340 340 340 340 339 338 337 336 333 332 330 328 327 329 328 328 328 328 329 329 329 330 330 330 330 330 330 329 328 327 327 326 324 324 325 326 327 326 325 326 320 316 317 318 321 323 323 321 320 316 318 312 316 314 311 310 308 309 310 310 311 310 309 308
331 330 331 332 332 333 334 335 334 332 331 335 336 334 334 337 339 339 338 339 339 340 341 339 337 335 333 330 328 328 325 326 326 325 324 325 325 327 328 328 328 328 328 328 328 328 328 327 327 325 325 325 324 324 325 325 326 325 325 323 321 323 318 315 312 315 315 316 317 316 318 317 310 316 315 304 307 308 308 308 309 310 310 309 307
332 332 331 331 332 333 334 333 332 329 334 336 336 333 334 337 337 337 338 338 339 340 340 338 338 337 337 335 333 330 328 329 331 329 326 324 326 326 326 328 327 327 327 327 327 327 327 326 326 324 323 323 323 323 322 323 323 323 323 322 320 320 321 313 311 309 310 312 312 313 314 315 317 316 308 308 303 305 305 307 308 307 309 308 306
330 330 330 331 332 332 331 332 331 334 336 336 334 333 333 335 336 338 339 338 339 339 339 339 338 337 337 336 335 333 333 329 328 326 325 325 326 325 325 326 327 327 327 326 326 326 326 325 324 323 320 321 320 319 321 321 321 320 321 320 320 321 321 318 316 314 308 307 312 311 310 311 313 313 312 310 306 308 304 306 307 308 308 308 307
331 331 330 331 332 332 332 330 333 335 335 334 334 333 334 336 336 336 337 338 339 339 338 338 338 337 337 336 334 334 333 328 325 324 323 325 325 324 323 323 326 327 328 327 325 324 324 323 322 321 320 319 318 319 319 319 319 319 317 316 316 315 316 315 314 312 312 309 310 311 312 310 309 311 311 311 308 306 301 303 306 309 308 306 308
332 332 332 331 332 333 333 332 331 333 335 336 336 336 336 337 337 336 336 337 339 339 338 338 339 338 336 335 333 331 327 325 324 324 324 324 323 323 323 324 326 326 326 325 324 324 323 323 320 319 320 318 317 318 317 316 316 316 315 314 314 313 314 313 311 311 312 313 313 313 311 310 310 308 308 308 308 307 301 301 302 303 303 305 307
331 331 333 333 334 333 333 330 331 333 334 337 336 335 335 336 337 336 336 337 338 337 338 338 338 337 335 335 331 329 327 325 323 324 324 324 322 323 323 323 326 325 324 324 323 323 323 322 320 319 319 319 317 315 315 313 312 312 312 313 313 312 311 312 312 312 311 311 311 309 308 308 306 305 306 306 306 306 304 302 303 302 301 303 305
331 331 331 332 332 332 331 330 330 332 333 334 336 335 335 336 336 335 336 337 338 337 338 337 337 337 337 336 332 330 328 326 325 323 323 324 323 322 322 323 324 324 324 322 323 322 322 320 320 319 318 318 316 316 315 313 312 311 310 310 311 312 312 311 311 310 311 310 310 309 308 308 308 307 307 307 305 304 305 304 302 304 304 304 303
330 331 331 331 330 330 331 331 331 331 331 333 333 334 335 335 335 335 335 337 337 337 337 337 337 337 336 336 334 332 330 329 327 325 325 324 323 321 321 321 322 323 322 322 321 321 321 319 319 317 317 317 316 314 313 312 311 310 310 310 310 310 310 311 310 311 311 308 307 308 308 307 306 307 308 307 307 307 306 303 303 306 303 303 304
330 330 331 331 331 331 331 331 330 331 333 333 333 334 335 335 335 334 334 336 337 336 337 337 336 336 336 335 334 333 332 330 327 325 327 326 323 322 322 322 324 323 322 321 320 319 320 320 319 318 316 315 314 313 312 311 310 307 309 308 309 309 310 310 310 310 310 310 309 307 307 306 306 307 307 306 306 305 303 303 303 304 306 302 303
331 329 330 330 332 332 331 331 331 332 333 332 332 333 334 334 334 334 334 335 336 336 337 336 335 335 335 336 334 333 330 328 326 327 327 324 322 323 323 323 322 322 320 320 320 319 319 318 317 316 315 315 314 313 311 311 310 308 309 309 309 309 309 308 308 309 308 308 309 307 307 306 306 306 306 306 306 305 304 303 302 300 302 302 301
330 330 330 332 333 333 332 332 333 332 332 332 332 333 334 334 335 336 335 335 336 336 335 334 333 333 334 334 334 331 328 327 325 325 325 324 322 322 322 322 321 321 321 320 319 319 318 317 316 315 315 314 313 311 310 309 309 308 308 308 307 308 307 307 307 308 308 308 308 307 306 305 306 306 306 306 305 306 305 304 303 302 299 297 300
330 330 329 332 332 333 332 333 333 333 332 332 333 333 333 334 334 335 335 335 336 334 333 333 332 332 332 332 331 328 327 325 324 323 322 322 321 320 320 320 321 320 319 320 319 319 318 317 315 315 314 313 312 311 310 309 309 308 308 308 308 308 308 307 307 307 308 307 307 307 306 305 305 307 306 306 306 306 305 304 303 301 300 297 296
331 331 331 332 332 332 332 333 333 333 333 333 333 334 334 334 334 334 334 334 334 332 332 332 331 330 330 330 329 328 326 324 323 323 321 320 319 319 320 320 320 319 319 319 319 318 317 316 315 314 314 313 312 310 309 309 309 307 308 307 307 308 307 307 307 307 307 307 306 306 305 304 306 306 305 306 306 306 304 304 303 303 302 298 298
330 330 331 330 331 331 332 333 333 333 334 333 333 333 333 334 334 335 334 334 333 332 332 332 331 328 328 328 327 325 324 322 321 321 319 318 318 318 319 320 319 318 318 318 317 316 316 315 315 313 313 312 311 310 310 309 309 307 307 307 307 308 306 306 307 307 306 306 305 304 305 304 306 306 306 306 306 305 304 303 302 304 304 303 301
330 330 330 330 330 332 332 332 332 332 333 333 333 332 332 332 333 334 334 334 333 332 331 330 330 328 328 327 326 324 322 321 320 317 316 316 316 318 318 319 317 317 317 317 316 315 315 314 314 313 312 311 310 310 310 309 308 308 308 307 307 306 305 305 306 306 305 305 305 304 304 305 305 305 304 305 304 305 305 303 303 303 303 303 302
330 331 331 330 330 332 333 333 332 333 333 332 332 332 332 332 332 333 332 332 331 332 332 330 329 327 327 325 323 322 321 319 318 317 316 316 318 319 318 318 316 316 316 315 315 314 314 314 313 312 311 310 310 310 310 309 308 307 307 307 306 305 304 305 305 305 304 304 304 303 303 304 305 304 304 304 304 304 305 304 304 303 302 303 302
331 332 331 330 331 332 332 333 333 332 331 331 332 331 331 330 331 332 332 331 330 330 330 329 329 328 328 327 324 322 319 316 316 317 316 316 317 318 319 317 316 315 315 314 314 314 314 313 312 311 310 310 309 309 309 309 307 306 307 307 306 305 305 305 305 304 304 304 304 303 303 304 305 304 304 303 303 304 304 302 303 303 302 302 303
332 331 331 331 331 332 332 331 331 330 331 331 331 330 330 330 332 331 330 330 330 330 331 330 329 328 327 324 321 318 316 316 315 316 316 316 318 318 318 316 315 314 315 314 314 314 313 313 311 311 310 309 309 309 309 308 307 306 306 307 306 306 305 305 304 304 303 304 304 304 304 304 305 305 305 305 305 304 304 304 304 303 303 302 302
332 331 330 330 331 331 331 330 329 329 329 330 329 330 330 331 331 330 330 331 331 331 330 330 329 327 324 320 316 315 315 315 315 316 316 317 318 317 317 316 314 314 313 314 314 313 312 312 311 310 310 309 309 309 308 307 306 306 306 305 305 306 306 305 304 304 304 304 303 303 304 305 305 304 304 304 304 304 304 303 303 303 303 302 303
330 329 329 330 330 329 329 329 328 328 328 328 328 328 329 330 331 330 328 329 329 329 328 325 324 323 319 317 316 315 315 316 316 316 317 318 318 317 317 314 314 313 314 313 313 312 312 311 311 310 309 309 309 308 307 306 306 307 306 306 306 306 306 305 305 305 304 304 304 303 303 304 305 304 304 303 303 304 303 304 302 302 302 302 303
328 328 328 328 329 329 329 329 328 328 328 327 327 327 328 329 329 330 328 327 328 328 326 322 321 320 318 317 316 315 315 316 317 317 318 317 317 317 315 314 312 312 313 312 312 311 311 310 310 310 309 309 309 309 307 307 306 307 307 307 307 306 306 305 305 305 305 305 305 304 304 305 304 304 303 303 303 303 303 303 302 302 301 302 302
327 327 328 329 328 327 327 328 327 327 327 328 329 329 328 327 328 328 328 328 328 327 325 321 320 319 318 318 317 316 316 317 317 317 317 316 316 316 314 312 312 312 311 311 311 311 311 310 310 310 309 309 309 308 308 308 307 307 307 306 306 306 306 306 306 305 305 305 305 304 305 305 303 303 302 302 301 301 302 302 302 301 301 301 300
326 327 327 327 328 327 327 327 326 326 326 326 328 330 330 327 327 326 326 325 325 326 325 323 321 320 320 319 318 318 318 317 317 317 316 315 314 314 313 312 312 311 310 310 310 310 311 311 311 310 310 310 309 308 308 308 307 308 307 307 307 306 306 306 306 306 306 305 305 305 305 303 302 302 302 302 301 299 301 301 300 300 300 299 299
324 326 327 328 327 326 326 326 325 325 325 326 326 327 328 328 327 326 324 323 323 324 323 322 321 321 319 318 318 318 318 318 316 315 314 313 313 313 312 311 311 310 310 309 310 310 310 310 310 310 309 310 309 309 309 308 308 307 308 307 307 306 306 306 306 305 306 305 305 305 304 303 301 300 298 298 298 297 301 298 299 299 298 298 298
325 325 326 327 327 326 326 326 325 325 324 324 325 325 324 324 324 323 323 322 323 323 323 321 320 319 319 319 318 317 316 315 315 314 312 312 311 311 310 310 310 310 310 309 309 310 309 309 309 309 309 310 310 310 308 303 303 307 308 308 307 307 306 306 306 305 305 306 305 306 303 299 300 300 300 297 295 295 296 299 299 298 297 297 297
324 325 326 326 326 326 326 326 326 325 325 325 325 325 323 322 323 323 324 323 325 325 323 321 319 319 318 316 314 313 314 313 313 311 310 309 310 309 309 308 309 308 308 308 308 307 308 308 308 308 308 309 309 310 298 297 297 296 306 308 307 307 307 306 306 306 305 305 306 305 306 303 304 304 305 296 295 295 294 294 295 296 298 299 296
324 325 326 326 326 325 324 325 325 325 324 324 324 324 322 322 322 322 323 324 324 323 322 321 318 316 315 313 313 312 312 312 311 310 309 309 309 309 307 306 306 306 306 306 305 305 306 307 308 308 308 309 310 301 295 295 295 295 299 309 308 307 306 307 306 306 306 306 306 305 305 305 304 300 302 305 301 296 294 294 293 294 294 294 295
325 324 324 326 326 325 324 325 325 325 324 326 326 325 324 323 322 322 322 322 321 320 320 319 317 316 314 312 311 311 311 310 310 309 309 308 307 306 305 305 305 305 304 300 299 303 305 307 308 307 308 309 310 294 294 293 294 294 294 300 308 307 306 307 306 305 305 305 306 305 304 304 305 303 303 301 302 303 299 295 295 295 295 293 291
326 325 325 326 326 326 325 326 325 326 326 327 327 326 326 325 323 322 321 320 317 315 316 316 315 315 313 311 310 310 309 308 308 308 308 307 306 303 304 305 303 301 300 299 300 303 305 307 307 308 308 309 309 295 293 293 293 292 293 295 307 306 307 306 305 304 304 305 304 304 303 303 303 304 303 300 301 302 302 304 304 304 303 301 295
326 325 325 326 327 327 326 325 325 325 325 325 327 328 326 326 325 323 321 319 316 315 314 313 313 313 313 310 310 310 308 308 307 307 306 306 305 304 303 303 302 300 300 301 303 305 306 307 307 308 308 308 307 293 292 292 292 292 292 294 307 305 305 304 304 305 305 306 304 303 302 303 303 303 304 298 301 300 302 303 303 303 303 303 304
326 326 326 327 327 326 326 325 325 326 325 324 324 326 326 324 325 324 322 320 317 316 315 314 313 313 312 311 310 309 308 308 307 307 306 305 304 303 304 305 304 303 303 303 305 306 307 307 308 308 307 307 304 291 291 291 291 291 291 302 305 303 303 304 304 305 305 305 304 303 303 303 302 303 296 289 294 298 302 302 302 302 303 303 303
329 328 327 329 329 328 328 327 326 325 324 324 325 324 323 322 321 321 319 318 318 317 316 314 312 312 312 311 311 310 309 308 306 305 305 305 305 305 306 306 305 304 303 303 305 306 306 306 307 307 307 305 302 293 290 291 291 290 295 302 302 301 303 304 304 305 305 304 303 302 303 302 302 303 294 289 291 291 302 302 301 302 302 302 302
328 328 328 329 330 329 328 327 326 325 325 326 326 324 323 320 318 317 315 316 317 316 315 312 309 309 309 310 310 309 307 306 306 305 305 306 307 307 307 306 304 303 303 303 305 304 304 305 306 306 306 305 303 296 290 291 290 291 296 300 300 302 303 303 305 304 305 303 302 301 301 302 302 303 289 289 289 296 301 301 301 301 301 300 301
329 328 327 328 329 329 328 328 327 325 326 327 326 325 322 319 317 315 315 315 315 318 317 312 309 309 308 308 308 308 307 306 305 305 305 304 303 304 305 305 304 304 303 303 303 303 303 304 305 306 304 304 303 297 290 291 290 291 296 302 301 302 302 303 303 303 304 303 301 299 299 300 301 298 287 290 289 294 301 301 300 301 299 299 299
329 330 330 329 329 328 327 327 326 326 328 326 324 322 320 317 315 315 314 315 317 319 319 316 313 311 310 310 309 307 306 304 303 302 301 302 303 303 303 303 302 302 302 302 301 302 302 302 304 305 304 305 303 300 296 290 291 290 291 302 303 302 301 302 303 301 301 302 302 302 300 290 288 289 289 288 289 289 299 301 301 301 299 296 298
328 328 321 328 327 327 326 326 326 326 326 325 323 320 317 316 315 315 314 318 321 319 317 317 314 312 311 310 308 308 306 304 302 301 301 302 302 301 302 303 301 301 301 300 301 302 302 301 302 304 304 304 303 301 297 289 291 290 291 292 304 303 303 302 302 300 301 301 301 302 304 294 288 290 289 289 289 289 290 300 301 300 299 300 294
328 326 326 328 327 328 327 327 328 328 326 325 323 320 319 318 317 316 317 318 316 313 313 313 312 310 309 308 307 306 306 304 303 302 301 301 302 302 302 302 300 300 300 300 301 301 301 301 302 302 303 302 300 299 298 291 290 290 291 289 300 304 302 303 301 300 301 301 302 301 304 295 288 290 289 289 289 289 289 299 302 293 290 288 297
329 328 328 327 327 326 326 326 326 326 325 324 322 320 320 318 317 316 317 317 315 313 311 311 309 307 306 306 305 305 304 303 303 303 302 301 302 302 302 301 300 300 300 300 300 300 300 300 300 300 300 299 300 298 294 296 291 290 290 291 288 295 291 304 302 300 301 302 302 302 303 291 289 289 289 289 289 289 290 301 291 289 289 288 291
331 329 328 328 327 327 326 327 327 325 325 323 322 319 317 316 317 318 316 314 313 313 312 311 309 307 305 304 304 304 304 303 303 303 303 301 302 302 301 300 300 299 299 298 297 298 298 297 297 297 298 298 299 298 295 293 295 288 290 289 289 287 290 300 303 303 303 301 303 303 300 289 289 289 288 289 290 290 297 291 289 289 288 290 298
328 327 328 327 327 326 325 325 325 324 325 323 322 318 315 315 318 317 314 313 313 313 312 311 309 307 305 305 304 303 303 302 303 303 303 302 301 301 299 300 300 299 298 296 296 296 295 295 295 296 296 297 298 298 298 295 292 290 289 289 288 288 289 287 299 303 303 303 295 288 288 289 290 289 288 288 289 290 287 288 288 288 291 300 301
328 328 327 327 327 326 325 324 323 323 324 322 321 320 316 317 318 318 316 313 314 313 311 310 308 307 306 305 303 303 303 303 302 303 303 302 301 300 300 300 298 296 295 294 294 295 294 295 295 296 297 297 298 300 299 299 296 294 292 289 289 288 290 290 292 297 290 287 287 289 288 287 288 292 300 305 302 303 293 289 290 291 302 301 301
326 327 325 326 326 324 324 323 321 322 323 322 322 321 320 319 316 316 314 313 313 312 310 309 307 306 306 305 304 305 304 302 302 302 302 302 301 301 301 299 296 295 295 295 295 294 295 295 296 297 298 298 299 299 299 299 297 298 297 297 295 296 291 290 294 298 295 296 296 295 297 294 293 291 291 292 294 296 300 302 304 302 302 302 302
328 328 326 327 325 324 322 320 319 321 321 321 320 320 319 317 316 315 313 312 311 310 310 308 306 305 304 304 304 297 301 303 302 303 303 303 302 301 300 299 297 296 296 295 295 295 295 297 298 300 300 299 298 300 301 301 298 298 298 298 298 298 298 298 297 298 300 300 301 296 296 301 302 302 302 303 304 305 303 300 302 302 301 301 299
326 326 326 325 324 324 323 320 319 321 322 321 320 319 318 317 316 316 314 312 310 307 308 307 306 305 304 304 304 303 304 303 303 303 304 304 302 301 300 300 301 301 299 298 297 297 297 299 300 301 301 300 301 301 303 297 302 295 298 301 299 298 299 299 296 293 300 302 301 299 299 301 301 301 301 302 303 302 302 302 303 303 302 302 302
326 325 325 325 324 324 321 319 320 322 322 320 319 318 317 316 316 316 315 313 311 309 308 306 305 305 304 303 303 303 304 303 303 302 302 302 295 295 298 301 301 297 295 295 294 299 299 300 300 302 304 302 302 304 296 295 294 294 294 294 294 293 293 296 292 288 294 297 298 298 299 298 300 300 299 298 299 300 300 300 301 296 299 301 299
323 322 324 324 323 321 320 320 321 322 321 319 319 318 316 315 314 313 314 313 311 308 307 306 304 304 302 303 303 303 303 303 303 303 303 301 301 300 294 294 296 297 296 293 293 294 293 293 300 301 301 292 290 291 292 294 293 293 293 292 291 290 290 288 288 294 292 292 293 293 295 297 298 300 298 298 296 298 297 298 299 299 300 299 297
Wind_Speed
10 11 13 13 13 12 10 11 12 11 11 13 14 13 13 13 12 13 11 9 7 8 7 9 8 7 6 8 7 6 5 5 4 4 3 3 4 4 4 4 5 5 5 5 5 4 3 3 3 2 1 2 2 2 2 2 2 1 1 1 1 0 3 1 3 6 7 6 5 7 7 7 8 7 7 7 6 5 5 5 5 4 5 5 5
11 11 12 13 12 13 13 12 12 12 11 13 14 13 13 12 13 12 11 11 10 9 9 10 10 8 8 8 6 6 6 6 5 4 4 5 6 5 5 5 6 6 5 5 4 3 3 2 2 2 1 2 2 2 2 2 1 0 0 2 2 2 3 1 1 6 5 4 6 5 5 5 6 7 7 7 6 6 5 5 4 4 4 4 4
11 13 13 13 14 14 12 11 12 12 12 14 12 9 10 10 11 11 10 11 10 10 9 9 8 8 7 7 6 6 5 4 5 4 4 5 5 5 6 6 6 6 5 4 3 3 3 2 2 2 3 2 2 1 2 2 1 1 1 0 3 3 4 2 1 5 4 5 5 5 6 6 5 6 7 7 6 6 5 5 4 4 6 5 4
14 15 14 14 15 13 11 12 13 10 11 12 10 10 9 7 10 11 11 11 10 10 9 9 8 7 7 7 7 7 7 6 6 6 5 5 5 5 6 5 5 5 4 4 3 4 3 2 2 2 3 3 2 2 2 2 2 1 1 2 1 3 3 5 3 2 6 4 7 6 3 7 8 6 6 5 6 6 6 5 4 4 5 5 4
14 14 13 13 14 14 13 12 11 10 9 12 12 10 5 10 9 10 8 8 8 9 9 8 8 8 8 8 7 8 7 6 7 5 4 5 5 5 6 6 5 5 5 4 4 4 3 3 3 3 3 3 2 2 3 3 3 3 2 2 2 2 4 4 5 5 4 6 6 3 4 6 3 9 7 5 3 4 5 5 4 4 4 3 4
14 15 15 14 13 12 13 13 12 10 10 12 14 11 13 11 11 11 10 9 9 11 11 10 10 10 10 9 9 8 8 8 9 8 6 6 5 5 6 6 6 5 4 4 4 4 4 3 3 3 3 3 3 3 3 4 4 4 3 3 4 4 3 4 5 5 7 7 7 5 5 5 2 8 7 5 4 4 5 5 5 4 3 3 4
13 14 13 13 13 13 13 13 13 14 12 14 13 9 9 10 9 11 10 9 9 11 13 11 11 10 11 11 11 10 10 9 8 7 6 5 5 6 6 5 5 5 4 4 4 4 4 4 3 3 4 4 4 4 5 4 4 4 3 4 3 2 0 4 5 5 5 7 6 7 8 7 7 2 1 8 7 4 4 3 4 5 4 3 4
15 15 15 14 15 14 15 13 13 12 15 13 12 12 12 12 13 11 8 11 10 11 13 12 11 10 10 10 10 10 10 11 8 7 6 6 6 7 6 5 4 4 4 4 4 4 4 4 4 4 4 5 4 5 5 5 5 5 5 5 4 3 3 3 3 3 4 4 5 6 7 7 7 7 7 5 2 5 6 5 5 4 4 3 3
17 15 16 15 15 15 16 16 11 13 16 16 14 14 13 12 14 13 12 13 12 14 14 12 10 10 10 9 9 6 9 9 8 7 7 6 7 6 5 5 4 4 2 3 4 4 4 5 5 5 5 5 5 6 6 7 7 6 6 5 5 5 5 4 4 4 3 4 3 4 4 5 5 6 5 6 4 2 4 3 2 4 3 4 2
16 16 14 14 14 14 17 16 13 11 13 13 13 14 15 15 16 15 15 12 12 14 13 13 13 11 10 10 11 10 8 8 8 8 7 7 7 6 5 4 4 3 3 4 4 5 5 5 5 6 6 6 6 7 7 7 7 7 7 7 7 7 6 6 6 5 5 4 3 2 2 3 3 4 5 4 4 5 4 4 3 2 1 2 1
16 16 15 15 14 16 17 17 14 11 14 14 14 14 14 15 15 16 15 12 12 14 14 14 13 12 10 11 12 12 12 10 9 8 7 7 7 6 5 4 3 3 4 4 5 5 5 5 5 6 6 6 6 6 6 6 6 7 7 8 8 7 6 7 7 7 6 6 6 5 6 5 5 5 5 5 5 5 3 4 4 3 3 3 3
17 15 13 14 15 16 18 18 16 13 14 14 13 14 14 14 14 16 16 14 13 14 15 13 12 12 12 13 13 13 12 10 11 10 9 9 8 7 5 4 4 4 5 4 4 5 5 5 6 6 6 6 6 5 5 6 6 6 6 6 6 6 6 6 6 6 6 6 6 6 6 6 6 6 5 5 6 5 4 4 4 4 2 3 3
16 15 14 15 16 18 17 19 18 16 15 17 15 14 14 15 17 16 16 15 14 15 15 14 12 12 11 12 13 13 15 14 12 11 9 8 7 7 6 5 5 4 4 4 5 6 5 6 6 6 6 6 6 6 6 7 6 7 7 7 7 7 6 6 5 6 6 6 6 6 6 6 6 6 6 6 5 4 6 5 5 3 3 3 3
17 16 13 14 14 17 18 17 18 16 18 17 16 15 13 13 16 16 16 16 15 14 14 13 11 11 11 12 13 12 12 11 10 10 9 7 7 7 6 5 4 4 4 4 6 6 6 6 6 7 7 7 7 7 7 7 7 7 7 7 7 6 6 7 7 7 7 7 6 6 7 6 6 6 6 6 6 6 6 6 5 3 2 4 3
16 16 15 16 15 18 18 18 16 17 18 18 15 15 15 15 17 17 17 16 16 14 12 12 10 11 11 11 12 11 10 8 7 8 8 8 7 7 6 5 5 5 5 6 7 7 7 7 8 8 7 7 7 7 7 7 7 7 6 7 6 6 6 7 7 7 7 8 7 6 6 7 6 6 6 6 6 6 6 6 6 6 3 2 4
17 17 17 17 16 16 17 19 18 16 18 17 18 16 14 15 17 17 17 16 14 13 12 13 12 11 12 12 13 10 8 8 7 7 7 8 8 7 7 6 5 6 6 7 8 8 8 8 8 8 8 8 7 7 7 7 6 6 6 6 6 5 7 8 7 7 8 8 8 7 7 7 6 5 5 5 5 5 5 5 6 6 6 6 5
17 18 17 18 17 16 18 19 18 17 16 19 19 18 16 15 15 16 15 15 14 14 14 13 12 12 13 13 11 10 10 9 9 10 9 8 7 7 7 6 6 6 7 7 8 8 8 8 8 8 8 7 7 7 7 7 7 6 6 6 6 6 6 7 6 6 7 7 7 7 6 6 5 5 5 5 5 4 4 4 5 6 6 6 7
18 18 18 19 18 18 17 18 19 20 19 18 18 17 15 14 16 17 15 16 15 15 14 14 13 13 13 12 10 11 10 9 9 11 9 8 7 7 7 7 7 7 7 7 8 9 8 9 8 8 8 7 7 7 7 7 7 6 6 6 6 6 6 6 6 6 6 5 6 6 5 6 5 5 5 5 4 4 4 5 4 4 5 6 6
16 17 17 17 17 19 19 19 20 19 18 18 16 15 15 13 15 16 17 17 17 14 14 12 13 10 9 10 11 10 9 10 9 9 9 9 9 8 8 7 8 8 8 8 9 9 9 9 9 8 8 8 7 7 7 6 6 6 6 6 6 6 6 7 6 5 5 5 6 6 5 5 4 4 4 4 4 4 4 4 4 3 3 4 5
16 17 17 17 18 19 19 19 20 19 19 18 18 16 18 16 14 15 15 15 15 15 14 14 12 9 9 10 10 10 10 10 10 10 9 10 10 9 9 9 9 8 8 9 9 9 9 9 8 8 8 8 8 7 6 7 6 6 6 6 6 7 7 7 6 5 4 5 5 5 4 4 3 4 5 4 4 4 3 3 4 4 3 3 4
17 17 17 17 18 19 20 19 18 17 14 16 18 18 17 15 16 16 16 16 16 15 15 13 11 10 12 12 11 10 11 10 11 11 10 10 9 9 9 9 9 9 9 9 9 10 10 9 9 9 9 8 8 7 6 6 6 6 6 7 7 7 7 6 6 6 6 6 6 6 6 5 4 4 4 4 4 4 3 3 3 3 3 3 4
16 16 16 16 17 18 19 17 16 17 16 18 17 17 16 16 16 15 14 15 15 14 14 14 13 11 14 13 12 11 10 10 11 11 10 11 10 9 9 9 10 10 10 10 10 9 9 10 9 9 9 9 8 8 7 6 7 7 7 5 6 7 6 6 6 6 6 4 5 6 6 5 4 5 5 5 5 4 4 4 4 4 4 4 4
15 16 15 15 17 18 17 18 19 18 15 17 17 17 17 18 16 15 16 16 15 15 14 14 14 13 14 11 11 10 10 12 12 10 10 10 10 10 9 10 9 9 9 9 9 9 10 10 9 9 9 9 8 8 6 7 7 8 8 7 6 6 6 6 6 6 6 6 5 5 5 4 3 4 4 4 4 4 4 4 4 4 4 5 6
15 14 14 15 16 18 17 17 17 19 18 17 16 17 16 16 16 16 16 17 16 14 14 14 14 14 13 11 10 10 11 11 11 9 11 11 10 10 9 9 10 9 9 8 9 10 9 9 9 9 9 9 8 7 7 7 8 8 7 8 7 6 6 5 5 6 6 5 5 5 4 3 3 4 4 4 5 5 4 4 5 5 5 6 6
16 16 16 18 18 19 18 19 18 19 18 17 17 16 14 16 16 16 15 15 15 14 14 13 14 15 12 11 12 11 11 12 11 10 12 11 11 9 8 10 9 9 9 9 9 9 9 9 9 10 10 9 9 8 8 8 7 7 7 7 7 6 6 5 5 5 5 5 4 4 4 4 4 4 4 4 5 6 5 4 5 6 6 6 7
17 17 18 19 19 16 14 15 17 18 18 18 17 17 16 15 16 15 15 15 15 14 14 13 12 14 13 13 12 11 12 12 11 11 12 12 10 9 10 9 10 10 10 9 9 9 9 10 10 10 10 9 9 8 8 8 8 7 7 6 6 6 6 6 5 5 5 4 4 4 3 3 4 4 4 5 5 6 5 5 6 6 7 7 8
17 18 18 18 18 20 19 19 18 17 18 18 18 19 16 16 16 16 15 15 15 14 14 13 13 13 13 14 13 12 12 12 11 11 11 11 10 10 10 10 9 10 10 9 9 9 9 9 10 9 9 9 9 8 8 7 8 7 7 7 6 6 5 4 4 4 4 4 4 4 3 3 4 4 5 5 6 7 5 6 6 7 8 8 8
15 18 20 22 21 17 19 19 18 17 18 17 17 18 17 16 16 15 15 14 12 15 15 15 14 13 13 14 12 12 12 12 11 11 11 11 10 9 10 9 9 9 8 9 9 9 8 8 9 9 9 8 8 8 8 8 7 7 6 7 6 6 5 4 4 4 3 3 3 3 3 4 5 5 5 5 6 7 6 6 6 7 8 8 8
18 19 20 21 21 19 20 20 19 19 19 19 17 12 15 13 15 15 15 15 15 14 14 14 13 15 14 13 12 11 11 12 13 12 12 10 10 9 9 8 8 7 5 6 8 9 9 8 9 8 9 8 8 7 7 7 7 7 7 6 6 5 5 5 4 4 3 3 3 3 3 4 4 3 2 3 3 3 6 7 7 8 8 8 8
19 19 19 18 19 19 21 20 19 19 19 18 17 16 15 15 16 15 15 13 15 12 14 14 14 14 13 13 12 11 12 12 12 12 12 10 9 9 9 9 8 8 7 7 7 6 8 8 9 8 8 7 7 6 6 4 1 5 7 5 5 5 5 4 4 4 3 3 2 2 4 4 2 3 5 5 5 3 4 4 6 7 7 7 7
18 19 18 19 19 19 20 20 20 21 19 18 17 17 16 15 15 16 17 14 15 14 13 15 14 13 13 12 11 11 12 13 12 12 12 11 9 9 10 10 7 5 5 4 5 5 6 7 8 9 8 7 6 5 10 5 2 7 2 6 5 5 4 4 4 4 3 4 3 2 2 6 8 8 8 9 6 8 7 6 7 7 6 5 7
18 18 18 20 21 20 21 22 21 20 19 18 18 18 17 16 16 16 14 14 13 13 13 14 14 14 13 13 12 12 12 12 12 12 11 10 10 9 9 9 9 8 6 5 5 2 5 7 7 8 8 7 6 9 10 7 2 2 6 2 5 4 4 4 4 4 3 3 3 2 1 1 1 5 5 2 7 10 8 8 9 10 9 8 7
19 20 21 20 21 20 21 21 21 20 20 20 19 17 17 17 15 14 11 13 13 12 12 13 13 14 14 12 12 13 13 12 12 12 12 12 12 11 12 11 10 8 6 6 7 8 7 7 7 9 9 9 6 9 10 8 7 6 6 7 5 5 6 5 3 3 1 2 2 2 1 1 1 4 5 4 6 3 7 12 11 13 12 10 7
17 19 20 19 16 17 18 20 20 20 19 18 17 17 17 15 13 13 14 12 11 10 10 11 12 13 13 13 13 13 12 12 12 12 12 12 11 10 9 9 9 8 7 8 8 9 9 9 8 8 8 8 6 9 9 9 8 8 8 8 5 6 4 4 4 3 3 3 2 2 1 1 2 2 3 6 7 6 7 6 5 5 6 4 3
18 19 20 20 19 20 19 20 20 18 17 15 16 17 16 16 17 15 15 14 12 12 11 11 11 12 12 13 14 14 13 12 12 12 12 11 11 9 9 8 8 8 9 9 10 11 9 9 9 8 8 7 6 9 9 9 8 7 6 7 4 3 3 3 4 4 4 3 2 1 1 1 1 2 3 5 6 8 8 6 6 7 7 6 5
17 19 19 20 19 20 20 19 17 17 17 17 17 14 16 17 17 17 16 15 15 14 13 13 13 13 13 13 14 14 13 12 12 12 12 12 11 11 10 9 9 8 8 9 9 9 10 10 9 9 8 7 6 8 7 8 6 6 5 6 3 3 5 5 5 5 5 4 3 2 2 1 2 1 5 1 4 7 8 7 7 8 7 7 6
15 17 19 18 18 18 18 19 18 18 17 17 17 16 15 15 15 13 14 14 15 15 15 15 14 14 14 14 14 15 15 14 13 13 12 12 12 12 10 9 9 9 9 9 9 9 9 9 10 9 9 7 7 5 5 6 6 7 5 5 4 6 6 6 5 6 5 4 3 2 1 1 2 2 5 4 5 8 8 8 8 8 7 7 7
15 16 16 17 16 16 18 18 20 19 19 17 18 16 16 14 13 13 12 13 14 15 13 12 12 12 13 13 13 13 14 14 14 15 14 13 12 10 10 9 10 10 10 9 8 8 8 9 10 10 9 8 8 8 8 7 7 8 8 7 6 6 6 6 6 5 4 4 3 4 5 3 3 3 5 4 6 8 7 8 9 9 9 9 8
15 17 18 18 17 17 19 19 19 20 19 19 18 18 16 15 15 14 13 13 14 17 17 14 13 12 11 11 11 12 13 14 13 13 12 12 10 9 8 8 8 8 8 8 8 8 8 8 9 9 8 8 8 8 7 7 7 9 8 7 6 6 6 6 6 6 5 4 5 5 6 5 4 4 3 4 5 7 7 7 8 8 8 9 10
15 16 17 17 17 17 17 18 20 20 20 20 18 16 16 15 14 14 13 14 16 17 16 15 15 15 14 14 12 11 9 9 10 9 10 10 9 8 8 8 7 7 7 7 7 7 8 7 8 8 8 7 8 8 7 7 7 8 11 8 6 5 6 6 6 6 5 5 5 5 7 6 4 4 5 4 6 5 6 7 7 7 8 10 11
16 16 16 16 17 17 19 19 18 18 18 19 17 16 15 14 14 14 15 16 17 14 14 15 14 14 14 13 9 8 9 9 8 9 9 9 8 8 8 9 8 7 8 8 9 8 8 8 7 7 8 7 6 7 8 8 7 8 10 10 6 6 6 6 6 5 5 5 5 5 5 8 6 4 5 5 6 7 6 6 6 7 8 8 9
15 17 18 17 17 18 18 18 17 19 19 18 16 16 16 15 15 15 16 14 15 13 11 12 13 13 12 9 8 7 8 8 9 9 10 9 8 9 9 9 7 8 9 9 9 7 8 7 7 7 7 7 7 7 7 8 8 8 9 10 6 6 2 6 5 5 4 4 4 3 4 7 6 3 5 6 6 7 7 6 5 5 8 9 8
17 18 18 17 17 18 18 18 16 17 17 16 16 16 15 14 15 15 13 13 13 13 12 13 12 12 10 9 10 11 10 9 10 11 12 11 10 10 9 9 9 9 9 9 9 7 7 7 7 7 7 7 7 7 9 9 9 8 7 7 5 7 4 4 4 4 4 4 3 2 4 7 3 4 6 7 8 8 9 6 3 7 9 11 10
14 16 17 18 16 17 16 16 16 16 16 14 16 15 14 14 15 13 12 13 13 13 13 14 13 13 12 11 12 12 11 10 11 11 11 11 11 10 10 9 9 9 9 9 8 8 8 8 8 7 7 7 7 7 8 8 9 8 7 5 3 4 6 3 3 3 4 2 3 1 4 6 5 7 8 9 10 8 7 9 9 10 11 11 9
15 16 16 15 16 18 17 16 15 17 16 15 15 15 15 16 13 13 13 14 13 14 14 13 14 13 13 12 12 11 11 11 12 13 12 11 12 11 10 10 10 10 10 10 9 9 9 9 9 8 8 8 8 8 8 8 9 10 8 6 4 3 3 3 4 3 2 1 6 6 5 7 8 9 10 11 12 13 12 11 10 11 10 8 5
14 15 17 16 15 16 17 18 17 17 16 14 14 14 16 15 13 15 15 14 15 14 14 14 13 14 14 13 13 12 12 12 13 11 11 11 11 12 11 10 10 10 10 10 11 10 10 10 10 9 9 9 8 7 8 8 9 7 7 8 7 6 5 5 7 8 10 9 8 7 9 10 11 10 8 6 5 3 8 10 12 10 8 4 5
16 15 16 15 15 16 17 17 17 16 15 13 14 13 15 14 14 14 13 13 14 14 13 13 13 12 12 13 14 12 11 10 10 10 10 11 11 11 11 11 10 10 11 11 11 11 10 10 10 10 9 9 8 8 8 8 8 7 8 8 7 7 6 4 5 6 7 6 7 8 6 6 8 10 11 11 10 10 10 9 7 4 3 4 5
14 15 16 15 15 16 16 17 16 16 14 13 12 12 13 13 14 14 13 12 12 12 13 13 14 12 10 11 12 13 14 11 12 11 11 12 12 12 12 12 12 11 11 11 11 11 11 11 11 10 10 9 9 9 9 9 9 9 9 9 9 8 8 7 7 7 7 7 6 7 10 8 8 9 9 8 8 5 3 4 3 4 4 4 4
13 14 15 14 13 15 17 16 16 15 15 13 13 13 14 14 14 14 14 14 12 13 12 14 13 12 10 9 10 12 10 10 11 11 10 11 11 12 11 10 11 11 11 12 12 11 11 11 10 9 10 10 10 10 10 9 10 10 8 8 8 8 7 7 5 2 3 5 6 7 7 7 6 5 4 4 3 3 3 4 3 3 5 4 5
11 11 14 12 13 12 16 16 15 15 15 13 14 13 14 14 14 15 15 14 14 13 13 13 12 11 11 11 9 10 10 10 11 11 10 9 8 10 10 10 11 12 13 12 10 11 11 10 10 10 10 10 10 8 10 10 8 10 7 4 1 4 5 1 7 5 3 5 6 5 6 5 6 5 4 3 3 3 4 4 5 3 5 4 5
9 11 13 11 11 12 16 16 16 15 15 14 14 14 14 15 15 14 14 14 15 12 11 11 11 11 12 12 12 12 11 10 10 10 9 9 9 9 5 2 4 12 10 11 11 10 11 11 9 9 8 9 10 10 15 14 11 10 10 10 6 7 8 9 8 4 2 5 6 5 5 5 6 6 3 3 2 4 3 3 4 5 5 4 4
Wind_Direction
160 168 178 175 171 169 163 166 167 167 167 171 178 177 170 165 161 159 160 155 157 160 159 152 162 166 169 176 170 165 163 148 148 152 141 125 128 126 126 121 113 110 104 96 87 83 78 78 78 73 20 41 36 37 26 28 22 32 83 350 315 199 84 137 158 133 139 124 121 104 91 76 75 74 67 66 61 57 55 55 51 52 50 49 54
157 174 177 174 172 166 163 166 169 170 169 175 177 176 168 159 162 158 159 162 161 166 166 168 171 173 182 181 167 160 161 166 151 146 127 130 125 119 115 102 100 94 88 88 93 91 92 94 87 62 28 50 52 54 39 33 45 351 277 132 52 63 86 63 122 164 171 173 155 148 123 103 81 75 72 62 61 61 62 62 66 58 52 56 49
170 180 180 176 172 170 168 167 169 172 168 176 171 149 167 170 166 156 161 166 165 165 173 169 177 182 182 157 164 148 66 63 125 105 83 94 93 98 96 90 89 93 96 92 85 79 78 79 65 60 34 11 338 24 41 37 31 41 245 86 122 93 95 73 183 286 240 173 189 172 172 169 147 110 83 72 61 56 60 61 52 59 63 49 50
188 188 183 177 174 171 170 167 169 164 162 161 142 161 185 167 165 165 167 168 166 171 179 174 174 164 153 136 144 160 156 117 101 98 103 104 94 92 91 98 94 94 97 103 93 80 64 52 49 41 42 22 9 20 42 54 56 89 106 85 7 124 80 81 40 315 324 265 200 229 153 207 165 155 120 89 78 70 62 60 50 47 51 56 44
194 191 181 181 175 172 169 164 159 161 136 152 161 160 199 170 158 166 163 162 156 166 176 164 153 140 124 123 112 101 113 119 127 118 116 114 114 106 104 100 102 96 87 78 76 70 57 48 44 51 45 43 34 63 67 56 71 87 72 71 29 51 104 85 70 35 29 9 338 259 206 217 39 116 132 116 118 102 83 78 65 56 60 49 56
200 196 192 184 178 164 163 156 158 126 149 169 165 150 179 180 180 175 172 165 168 171 165 156 152 152 150 150 152 151 144 155 160 151 145 139 119 107 103 102 96 85 77 64 62 66 69 65 59 68 77 69 68 70 76 82 65 70 59 75 81 47 85 101 84 67 57 36 40 28 359 357 64 138 194 132 129 90 94 77 74 64 54 68 54
197 200 192 181 178 170 161 156 144 150 168 160 153 150 193 174 176 179 175 175 173 169 166 167 174 177 174 172 169 165 160 164 157 138 131 121 125 120 108 105 98 94 86 76 70 71 78 80 82 79 85 83 71 66 63 61 66 53 54 61 57 79 111 105 94 92 74 54 48 42 41 37 27 339 135 130 154 128 86 96 88 74 60 50 57
199 199 193 188 179 170 163 148 151 166 162 160 150 149 194 187 184 172 174 177 175 174 178 185 182 181 181 178 176 175 167 156 139 124 120 131 128 126 121 116 109 96 89 79 93 94 93 94 88 78 78 75 73 72 67 63 74 71 62 60 60 52 39 82 94 70 77 75 42 49 52 47 46 46 17 337 18 145 147 130 107 80 80 60 46
197 197 195 188 175 167 159 154 160 159 166 169 161 163 181 184 181 174 185 182 179 176 184 189 185 183 184 179 175 156 151 140 126 128 131 133 128 128 129 121 110 90 61 90 98 97 99 90 88 85 79 82 81 79 76 73 68 70 67 63 60 62 59 58 88 96 104 102 107 83 68 63 65 53 33 22 13 121 102 96 142 146 139 72 48
197 202 193 189 176 162 158 151 160 172 167 165 165 162 171 177 180 179 184 181 178 179 187 187 186 181 181 174 155 148 140 127 132 137 139 142 137 137 133 134 126 109 97 91 101 99 97 104 97 91 86 80 80 85 87 82 76 73 68 68 68 72 65 66 72 81 75 61 45 70 102 105 85 69 50 48 58 40 61 64 57 78 139 99 86
196 199 190 186 172 165 160 156 168 169 168 171 167 165 168 181 180 179 178 179 177 180 192 193 185 180 173 159 152 146 140 139 140 141 145 151 149 147 141 134 125 108 111 108 101 103 100 92 97 97 93 93 96 98 91 89 88 83 80 76 71 73 76 76 74 69 73 68 64 64 67 57 54 54 45 46 39 40 50 52 47 39 32 98 114
194 194 180 175 171 167 164 161 166 174 171 175 173 174 173 182 179 181 177 178 176 184 194 190 183 177 175 171 161 149 146 155 153 152 161 161 153 146 141 145 133 122 121 116 120 115 110 103 100 102 98 97 95 94 95 95 93 89 85 83 81 77 77 77 77 80 80 83 75 73 70 65 58 54 53 40 36 33 20 32 34 9 47 41 69
191 190 184 179 178 171 167 167 163 172 175 177 178 176 177 182 182 183 182 180 180 185 187 183 180 178 174 172 172 164 161 164 168 159 163 160 155 144 149 147 137 135 126 123 124 132 118 119 114 105 104 98 97 95 93 91 91 91 89 86 79 76 70 72 77 69 71 79 81 73 71 67 63 58 47 44 41 33 25 24 22 24 0 16 30
187 189 180 181 180 173 172 168 169 170 175 177 177 175 180 182 180 180 182 183 175 181 183 179 175 176 169 172 171 167 165 160 156 159 166 158 145 144 153 148 138 129 135 139 141 137 126 114 111 106 106 109 105 100 98 96 97 98 96 92 88 85 86 86 84 82 78 76 76 77 69 68 65 56 54 48 41 36 35 22 359 12 340 12 15
183 186 185 186 185 177 173 172 171 174 171 174 175 178 180 182 181 179 179 182 175 176 177 172 170 172 173 173 174 164 152 147 145 155 153 141 139 145 141 136 126 131 133 131 144 132 124 123 120 120 117 114 113 109 105 102 98 100 97 93 93 95 91 87 83 82 79 78 77 77 79 73 68 61 53 53 52 43 37 22 10 3 16 54 10
185 183 189 191 184 177 175 177 176 174 171 173 177 180 180 181 180 180 179 178 173 170 173 172 170 171 172 174 172 151 142 139 138 138 135 133 138 139 133 129 126 127 130 137 140 135 134 129 130 124 125 123 120 118 115 109 108 105 105 108 105 103 99 96 96 90 86 84 83 82 80 76 71 67 64 62 53 51 45 31 20 17 2 1 3
185 182 189 189 187 184 184 181 177 175 174 177 179 181 179 178 180 179 177 177 170 169 168 169 167 169 172 172 155 146 145 146 145 140 132 132 134 133 136 131 128 133 133 141 142 137 138 135 127 128 129 126 121 118 116 118 120 116 116 119 111 105 98 91 88 90 89 85 83 83 86 89 82 75 71 65 60 52 49 41 31 27 3 358 354
183 182 186 187 188 190 189 183 181 180 176 177 177 177 177 178 179 179 175 172 168 168 168 168 166 169 170 165 149 148 151 139 139 140 135 134 132 134 136 141 137 135 141 141 142 140 137 136 135 134 132 131 128 126 125 125 126 122 123 117 111 111 107 101 93 89 85 86 88 89 88 86 77 78 74 63 58 52 49 42 34 32 19 9 353
184 185 185 187 188 191 190 186 183 180 172 176 175 171 177 175 182 177 174 173 170 167 166 166 168 166 158 153 151 145 141 137 135 133 137 141 140 146 147 137 133 141 146 146 148 146 146 144 141 138 137 135 133 128 132 136 133 129 130 121 123 116 106 103 98 96 97 97 101 101 99 94 93 84 82 75 58 42 38 42 35 20 26 1 344
182 186 185 185 190 189 188 185 184 178 174 173 172 174 178 178 172 177 171 170 168 165 165 169 164 147 146 143 145 149 148 145 141 139 148 147 149 149 142 139 142 148 150 153 153 151 150 147 145 142 142 141 140 140 141 138 143 139 139 128 120 120 111 107 107 102 103 107 109 103 92 92 98 91 76 63 60 50 30 27 27 13 17 0 325
184 184 182 182 187 187 189 188 184 176 171 173 175 180 179 175 178 178 171 170 169 169 169 166 156 152 150 149 146 147 144 136 140 147 149 150 152 149 145 140 147 153 153 157 155 153 153 150 148 150 148 147 145 147 147 149 148 145 133 129 128 120 115 110 112 112 110 107 101 99 94 85 72 66 63 58 46 35 32 29 15 2 1 359 339
182 180 177 179 185 186 187 183 180 176 171 175 178 179 176 176 180 171 169 171 168 167 168 163 164 153 165 160 150 144 139 139 144 155 154 154 154 148 142 146 152 154 160 155 155 154 153 156 153 153 152 150 153 150 155 154 149 143 135 135 135 128 119 116 114 111 109 106 106 97 94 84 69 64 51 45 32 23 19 18 6 2 350 344 340
176 173 174 180 185 185 180 180 176 170 166 171 177 178 177 180 177 172 175 173 170 167 166 166 169 168 165 145 139 138 138 146 151 155 157 155 149 143 147 149 156 156 159 156 153 156 159 156 156 155 155 156 156 152 153 152 147 147 143 142 139 131 128 130 128 122 116 115 113 108 99 91 74 66 61 50 32 17 8 20 359 353 343 340 331
168 171 174 180 186 186 178 177 172 172 174 172 174 178 177 179 174 173 176 174 171 170 166 169 169 168 156 135 138 143 147 150 153 157 160 154 146 147 149 154 155 157 156 156 156 160 158 159 158 159 158 160 156 153 152 150 152 149 147 145 141 139 138 131 125 121 118 114 108 106 96 87 75 64 46 43 33 13 9 10 358 353 343 343 329
171 173 178 181 185 182 179 175 172 173 169 168 171 178 172 177 176 173 172 171 168 166 167 167 160 155 147 144 148 151 154 157 158 157 154 148 145 147 153 156 156 160 155 156 159 159 162 165 164 165 162 162 159 157 150 150 149 154 148 145 148 142 140 128 114 108 110 109 107 95 91 78 60 55 46 34 24 13 7 5 359 351 345 342 331
175 177 182 183 181 176 173 171 174 173 171 173 169 170 175 174 174 169 167 170 168 168 167 161 152 159 150 151 153 156 159 161 158 154 150 146 147 151 153 157 163 162 160 160 160 163 170 168 169 168 165 163 161 157 156 153 153 154 151 150 144 147 143 137 131 127 116 111 100 94 84 72 57 44 40 29 16 9 7 358 0 350 345 338 331
178 181 184 180 175 174 173 174 174 169 169 176 176 175 171 171 169 169 167 168 168 167 161 150 153 152 155 157 158 159 160 159 153 149 148 148 153 155 157 162 165 163 163 164 164 168 171 172 170 168 167 165 160 161 157 157 156 157 154 151 153 149 148 142 146 127 122 109 98 91 87 70 53 38 33 28 16 8 4 356 1 349 344 338 332
181 184 184 183 177 171 173 173 169 169 170 173 180 184 177 169 171 169 166 167 169 166 162 156 157 158 161 160 160 159 158 153 150 149 150 151 154 159 158 156 161 163 167 169 171 169 170 173 168 170 166 164 163 165 162 162 162 159 160 158 158 160 150 153 154 150 138 128 107 95 81 62 45 34 20 27 20 11 359 0 1 350 345 339 335
186 186 186 183 176 173 174 172 169 168 170 176 175 164 180 173 171 169 168 169 168 162 151 150 152 165 166 158 155 156 155 151 151 149 146 147 154 151 145 148 152 152 156 178 177 174 168 171 164 171 166 165 171 170 166 170 164 165 164 167 165 167 163 161 168 162 166 153 143 101 66 57 45 31 24 353 7 332 351 1 358 353 346 341 336
188 188 187 184 178 173 176 171 170 167 165 169 172 176 176 175 173 169 166 162 170 158 152 150 154 163 155 157 153 151 152 151 151 148 143 142 151 144 142 141 144 150 168 183 177 182 176 169 170 167 170 171 175 182 129 127 18 164 168 167 169 168 179 173 178 169 176 187 162 148 112 110 210 220 200 193 203 224 270 312 345 351 352 345 342
189 190 184 185 184 178 176 174 174 176 173 172 173 172 173 175 173 171 169 165 172 168 158 153 152 152 151 149 148 150 151 154 152 147 144 147 149 149 147 136 126 136 142 148 166 179 193 180 176 175 172 178 180 146 115 140 102 345 256 168 177 173 181 179 181 190 183 180 193 181 161 180 208 213 200 200 204 206 215 250 257 267 282 319 348
190 185 182 183 179 178 178 179 176 173 169 170 173 172 170 173 172 172 158 159 161 160 159 157 150 149 149 149 151 153 156 154 151 148 142 141 148 150 134 129 132 135 140 127 107 160 217 199 182 177 178 180 185 118 150 148 174 225 289 225 179 176 188 189 198 194 189 182 177 180 189 243 30 2 325 231 207 201 214 229 242 254 259 238 235
187 185 190 185 181 178 175 176 178 177 178 177 175 171 172 172 169 163 147 156 155 154 154 154 155 156 153 150 150 155 156 153 150 139 145 161 161 155 150 150 144 135 121 113 149 177 212 199 189 182 182 184 167 136 154 167 169 205 228 260 183 190 190 193 188 204 211 182 178 178 170 278 118 208 253 346 334 326 207 217 234 243 234 218 213
187 187 190 187 176 177 176 175 175 175 173 172 173 175 179 174 162 154 159 157 146 144 149 153 157 159 154 152 154 154 153 152 148 149 156 154 158 153 145 141 133 133 140 156 179 190 196 192 188 183 182 182 162 147 162 167 177 188 213 239 227 178 199 184 181 184 186 190 188 211 205 206 17 327 17 337 339 326 333 328 326 342 348 346 200
186 186 188 186 178 173 170 172 172 169 167 171 180 177 170 172 176 168 165 157 154 151 156 155 156 158 158 158 158 157 155 155 156 157 160 158 155 140 141 140 143 152 161 171 184 187 187 187 184 185 182 180 143 149 163 170 177 187 204 238 247 163 196 188 189 188 198 169 163 174 251 301 348 343 47 359 319 334 326 331 332 340 346 346 343
186 186 185 186 181 177 173 167 169 171 173 171 169 163 167 173 177 172 163 164 160 161 162 161 162 163 164 165 160 155 155 156 155 157 160 160 155 154 152 153 156 163 174 183 181 184 180 180 180 179 179 169 134 152 160 164 167 176 193 221 206 185 216 198 190 182 183 172 175 196 234 264 332 54 89 357 310 311 318 333 337 340 343 342 346
186 184 185 184 180 170 170 171 170 173 170 173 174 163 159 164 167 159 157 160 163 164 165 163 164 164 167 166 163 158 159 157 155 157 160 162 162 161 162 163 166 169 176 179 175 175 174 177 176 179 177 168 148 148 149 154 162 181 201 213 207 211 200 194 182 172 178 159 180 211 250 310 301 54 73 348 322 302 314 335 338 339 337 338 339
181 179 180 178 170 172 168 169 169 172 174 176 175 168 161 160 160 156 156 165 170 171 161 153 152 155 157 159 159 157 154 155 158 165 167 167 166 163 162 168 172 172 174 174 168 168 173 177 180 179 179 165 157 141 162 166 178 186 217 213 205 210 185 183 172 177 175 167 120 42 311 280 303 63 55 339 320 299 320 338 337 336 334 338 340
176 177 178 177 174 171 168 169 170 173 177 177 175 167 161 163 163 165 166 169 176 181 183 174 165 160 154 153 159 161 160 160 164 163 158 154 156 157 159 166 172 169 166 163 166 164 169 173 177 180 158 168 152 149 170 177 189 195 222 225 217 193 184 180 175 173 178 180 156 191 224 294 334 24 16 297 302 293 320 339 337 329 335 334 342
170 172 175 173 170 164 169 179 178 180 177 175 171 163 162 161 163 162 169 173 178 187 189 178 169 168 167 164 163 156 148 146 139 132 137 145 151 152 158 164 162 169 162 155 169 166 167 170 170 168 158 174 155 162 169 186 197 208 233 255 214 195 186 176 186 169 178 181 183 184 173 199 237 250 261 263 264 272 292 329 330 335 337 333 332
167 167 166 169 172 175 176 175 177 174 173 176 166 162 160 160 162 168 176 180 185 183 181 175 163 164 166 163 148 135 136 142 135 140 140 137 145 150 155 161 160 163 154 160 169 169 167 167 173 175 167 163 164 165 162 181 199 215 232 253 226 198 182 180 180 180 184 179 187 199 165 156 202 227 253 248 249 245 268 291 321 338 331 321 310
165 158 168 167 172 174 179 182 183 181 179 177 170 165 166 164 168 172 172 171 171 162 157 150 150 151 146 135 133 118 123 126 135 140 140 150 157 152 156 160 153 150 161 164 163 161 166 166 170 175 169 168 157 173 161 179 203 207 232 255 281 189 183 180 182 177 193 174 186 184 138 142 173 225 264 272 264 248 235 262 314 322 300 298 289
162 163 171 166 168 172 176 177 176 178 178 173 165 162 164 164 171 173 168 164 159 154 153 151 146 143 136 132 145 146 149 150 154 157 157 161 162 159 158 160 156 160 162 160 158 157 168 169 169 173 167 173 165 173 170 177 190 212 219 250 295 309 44 293 182 179 191 171 176 199 111 86 360 305 290 279 275 268 254 243 287 284 284 284 281
167 170 169 171 168 174 174 176 174 178 181 169 164 161 161 166 175 167 158 157 155 156 158 154 153 152 150 151 150 152 155 156 155 160 163 159 163 162 162 164 165 168 163 158 156 170 179 174 174 170 170 172 170 176 172 191 175 202 204 246 254 338 337 308 307 200 187 187 188 170 40 5 322 299 285 277 269 258 266 300 282 276 277 281 275
174 176 172 176 171 171 173 173 174 180 181 171 168 161 155 167 167 158 156 157 157 160 159 157 156 154 153 153 152 157 157 160 168 170 168 166 164 165 169 174 173 173 167 162 165 180 179 177 177 175 175 176 177 179 172 178 177 174 203 204 217 233 289 336 278 215 216 61 32 1 324 287 283 277 276 273 261 244 239 246 252 260 267 275 322
175 176 177 183 169 171 172 172 177 183 183 171 168 163 164 169 155 167 169 157 160 161 160 155 151 159 160 150 152 160 165 167 167 172 169 167 167 171 177 176 176 171 168 173 179 178 180 177 180 179 178 178 177 180 174 170 181 178 193 196 213 202 211 227 276 308 328 317 297 286 280 270 260 252 253 258 290 319 197 223 242 247 259 306 348
178 177 173 182 173 172 174 172 178 181 182 170 166 173 170 156 157 158 152 154 163 162 157 154 153 153 152 154 157 166 164 161 164 170 171 171 173 178 177 171 173 171 175 180 179 178 181 181 183 182 180 176 178 183 180 171 182 183 195 186 195 204 198 213 246 240 235 249 239 232 253 266 287 286 272 272 271 264 259 239 234 231 287 341 338
181 164 175 183 175 174 171 172 178 177 176 167 166 165 157 153 155 154 152 153 158 160 158 157 151 146 149 159 166 159 161 166 173 177 177 179 179 183 182 180 178 178 179 181 182 183 185 185 183 183 176 178 186 191 186 180 179 187 190 190 192 201 203 210 216 220 219 226 234 216 224 238 235 236 236 232 228 242 289 320 313 308 314 324 298
175 165 183 180 179 175 172 171 174 178 177 164 161 155 155 152 157 159 160 161 159 155 154 154 155 155 155 155 159 160 170 168 172 178 183 182 180 182 181 177 182 183 188 186 186 184 187 186 190 185 183 185 193 194 193 185 181 187 195 187 184 196 196 203 202 30 256 228 237 247 252 247 244 247 267 273 289 290 306 318 301 300 313 313 345
168 164 187 170 172 167 163 171 176 181 177 165 161 160 158 157 159 164 164 163 158 156 155 154 157 157 156 159 159 162 168 170 170 173 173 175 175 177 179 181 185 195 190 191 183 188 185 188 192 196 193 195 195 195 139 157 151 164 199 236 195 164 189 75 105 114 265 264 255 258 257 254 250 253 261 283 287 299 305 311 310 305 283 319 332
164 172 186 167 165 153 166 179 184 180 176 170 170 168 163 160 156 159 161 158 154 150 151 155 156 161 163 167 165 166 170 172 173 172 171 172 173 189 193 211 231 182 178 180 184 180 181 204 203 194 177 98 80 105 150 166 161 172 187 197 171 138 134 129 139 142 214 237 252 252 249 248 246 249 249 255 274 277 283 284 288 301 301 306 308